#timestamp,LO_Frequency,Hit,StdDev 
1514682015.2,286046998.5,N
1514682035.1,286047000.7,N
1514682036.0,286047000.7,N
1514682055.8,286046999.9,N
1514682075.7,286046998.5,N
1514682095.5,286046998.8,N
1514682115.3,286046994.9,Y
1514682135.2,286046995.2,P
1514682155.0,286046995.0,N
1514682155.9,286046995.0,N
1514682175.8,286046997.9,N
1514682195.6,286046995.4,N
1514682215.4,286046995.6,N
1514682235.3,286046995.4,N
1514682255.1,286046995.3,N
1514682275.9,286046996.1,N
1514682295.7,286046997.8,N
1514682315.5,286046999.0,N
1514682335.4,286046996.9,N
1514682355.2,286046996.9,N
1514682375.0,286046998.9,N
1514682376.0,286046998.9,N
1514682395.8,286046998.5,N
1514682415.6,286046998.5,N
1514682435.5,286047000.7,N
1514682455.3,286046998.1,N
1514682475.1,286046998.9,N
1514682495.9,286046999.5,N
1514682515.7,286046999.0,N
1514682535.6,286047000.6,N
1514682555.4,286046998.9,N
1514682575.2,286046997.9,N
1514682595.1,286046997.5,N
1514682596.0,286046997.5,N
1514682615.8,286046996.8,N
1514682635.7,286046995.0,N
1514682655.5,286046998.5,N
1514682675.3,286046996.9,N
1514682695.2,286046998.4,N
1514682715.0,286047001.1,N
1514682715.9,286047001.1,N
1514682735.7,286047001.1,N
1514682755.6,286046998.4,N
1514682775.4,286046999.1,N
1514682795.3,286046998.9,N
1514682815.1,286047001.2,N
1514682835.8,286046996.5,N
1514682855.7,286046998.2,N
1514682875.5,286047000.9,N
1514682895.4,286046998.5,N
1514682915.2,286046998.1,N
1514682935.0,286047000.8,N
1514682935.9,286047000.8,N
1514682955.8,286046998.6,N
1514682975.6,286047000.9,N
1514682995.4,286047000.3,N
1514683015.3,286047000.0,N
1514683035.1,286047000.6,N
1514683055.9,286047001.1,N
1514683075.7,286047000.6,N
1514683095.5,286046998.2,N
1514683115.4,286046999.3,N
1514683135.2,286046996.6,N
1514683155.1,286046998.2,N
1514683156.0,286046998.2,N
1514683175.8,286046998.7,N
1514683195.6,286046999.0,N
1514683215.5,286046999.3,N
1514683235.3,286047000.7,N
1514683255.1,286047002.0,N
1514683275.9,286047002.2,N
1514683295.7,286047000.3,N
1514683315.6,286047001.0,N
1514683335.4,286047000.4,N
1514683355.2,286047002.6,N
1514683375.1,286046998.5,N
1514683376.0,286046998.5,N
1514683395.8,286046999.4,N
1514683415.7,286046997.3,N
1514683435.5,286046999.1,N
1514683455.3,286046998.1,N
1514683475.2,286047002.6,N
1514683495.0,286047001.4,N
1514683495.9,286047001.4,N
1514683515.8,286047001.7,N
1514683535.6,286047002.5,N
1514683555.4,286047000.9,N
1514683575.3,286046998.3,N
1514683595.1,286047000.0,N
1514683615.8,286047001.6,N
1514683635.7,286047001.9,N
1514683655.5,286047003.7,N
1514683675.4,286047004.4,N
1514683695.2,286047001.5,N
1514683715.0,286047001.4,N
1514683715.9,286047001.4,N
1514683735.8,286047005.3,Y
1514683755.6,286047003.5,P
1514683775.5,286047003.6,N
1514683795.3,286047004.1,P
1514683815.1,286047002.6,N
1514683835.9,286047000.5,N
1514683855.7,286046998.2,N
1514683875.5,286046998.7,N
1514683895.4,286047000.4,N
1514683915.2,286046998.5,N
1514683935.1,286046998.1,N
1514683936.0,286046998.1,N
1514683955.8,286047000.4,N
1514683975.6,286047002.4,N
1514683995.5,286046998.5,N
1514684015.3,286046996.6,N
1514684035.2,286046999.6,N
1514684055.9,286046997.3,N
1514684075.7,286046999.1,N
1514684095.6,286046998.4,N
1514684115.4,286046998.3,N
1514684135.2,286046999.6,N
1514684155.1,286046999.1,N
1514684156.0,286046999.1,N
1514684175.8,286046999.2,N
1514684195.7,286046999.1,N
1514684215.5,286046999.4,N
1514684235.3,286046999.6,N
1514684255.2,286046998.2,N
1514684275.0,286046999.4,N
1514684275.9,286046999.4,N
1514684295.8,286046999.3,N
1514684315.6,286046999.1,N
1514684335.4,286046998.6,N
1514684355.3,286046999.9,N
1514684375.1,286047000.0,N
1514684395.8,286046999.8,N
1514684415.7,286047000.4,N
1514684435.5,286046996.5,Y
1514684455.4,286046998.7,P
1514684475.2,286047000.7,N
1514684495.0,286047001.0,N
1514684495.9,286047001.0,N
1514684515.8,286046998.5,N
1514684535.6,286046999.0,N
1514684555.5,286046999.3,N
1514684575.3,286046999.5,N
1514684595.1,286046997.6,N
1514684615.9,286046995.1,Y
1514684635.7,286046995.0,P
1514684655.5,286046999.3,N
1514684675.4,286046994.9,N
1514684695.2,286046995.0,N
1514684715.1,286046995.8,N
1514684716.0,286046995.8,N
1514684735.8,286046994.0,Y
1514684755.6,286046996.0,P
1514684775.5,286046994.2,P
1514684795.3,286046996.4,P
1514684815.2,286046993.9,Y
1514684835.9,286046999.4,P
1514684855.7,286046998.9,N
1514684875.6,286046997.5,N
1514684895.4,286046997.6,N
1514684915.3,286046995.8,Y
1514684935.1,286046996.8,P
1514684936.0,286046996.8,P
1514684955.8,286046999.1,N
1514684975.7,286046996.5,Y
1514684995.5,286047000.7,P
1514685015.4,286047000.5,N
1514685035.2,286047002.2,N
1514685055.0,286047000.4,N
1514685055.9,286047000.4,N
1514685075.8,286047000.8,N
1514685095.6,286047001.2,N
1514685115.4,286046999.5,N
1514685135.3,286046999.3,N
1514685155.1,286046998.7,N
1514685175.9,286046997.2,N
1514685195.7,286046996.6,N
1514685215.5,286046996.7,N
1514685235.4,286046999.5,N
1514685255.2,286046998.5,N
1514685275.1,286046998.1,N
1514685276.0,286046998.1,N
1514685295.8,286046999.2,N
1514685315.6,286046996.9,N
1514685335.5,286046996.6,N
1514685355.3,286046998.9,N
1514685375.1,286046997.3,N
1514685395.9,286046997.0,N
1514685415.7,286046996.5,N
1514685435.6,286046997.2,N
1514685455.4,286046998.3,N
1514685475.2,286046996.9,N
1514685495.1,286046997.8,N
1514685496.0,286046997.8,N
1514685515.8,286046995.8,N
1514685535.7,286046993.3,Y
1514685555.5,286046997.3,P
1514685575.3,286046995.5,P
1514685595.2,286046995.3,P
